Location: Bakov nad Jizerou
(50.4784°N, 14.9394°E)
Time: 06:33:28
(UTC+00:00)

CENTAUR R/B - Pass Details

Date: 16 June 2021
Orbit: 740 x 1447 km, 63.4° (Epoch: 17 July)

Event Time Altitude Azimuth Distance (km) Brightness Sun altitude
Rises 21:59:40 0° 267° (W) 3,614 5.6 -14.9°
Reaches altitude 10° 22:02:18 10° 277° (W) 2,770 5.1 -15.0°
Maximum altitude 22:08:19 36° 342° (NNW) 1,720 4.5 -15.2°
Drops below altitude 10° 22:15:22 10° 47° (NE) 3,253 5.7 -15.5°
Sets 22:18:43 0° 56° (NE) 4,323 6.2 -15.5°
